FW2889 Weather Reports


Display with metric or nautical units.
time (UTC)temp
F
wind
direction
speed
MPH
gust
MPH
rain 1hr
in
rain 24hr
in
rain mn
in
humidity
%
barometer
mb
20260507023041 61 0 3.0 11.0 0.00 0.00 0.00 59 992.0
20260507020043 58 0 2.0 8.0 0.00 0.00 0.00 62 991.2
20260507013143 58 293 2.0 8.0 0.00 0.00 0.00 62 991.5
20260507010042 56 0 4.0 13.0 0.00 0.00 0.00 65 991.8
20260507003042 60 0 4.0 13.0 0.00 0.00 0.00 57 991.3
20260507000041 60 0 3.0 9.0 0.00 0.00 0.00 57 991.3
20260506233142 61 0 5.0 11.0 0.00 0.00 0.00 56 991.2
20260506230041 61 0 6.0 13.0 0.00 0.00 0.00 55 991.3
20260506223041 63 0 6.0 11.0 0.00 0.00 0.00 52 991.2
20260506220041 64 0 5.0 12.0 0.00 0.00 0.00 50 991.1
20260506213041 66 0 6.0 15.0 0.00 0.00 0.00 47 991.2
20260506210042 68 0 6.0 14.0 0.00 0.00 0.00 44 991.1
20260506203040 68 0 4.0 9.0 0.00 0.00 0.00 44 991.0
20260506200040 66 158 1.0 4.0 0.00 0.00 0.00 47 991.1
20260506193042 67 180 1.0 4.0 0.00 0.00 0.00 45 991.0
20260506190042 68 158 2.0 5.0 0.00 0.00 0.00 44 990.9
20260506183042 68 135 1.0 4.0 0.00 0.00 0.00 42 990.9
20260506180042 69 135 1.0 3.0 0.00 0.00 0.00 42 990.9
20260506173101 70 90 1.0 3.0 0.00 0.00 0.00 42 990.8
20260506170042 70 0.0 2.0 0.00 0.00 0.00 42 990.6
20260506163101 72 0.0 2.0 0.00 0.00 0.00 40 990.4
20260506160042 75 293 2.0 5.0 0.00 0.00 0.00 34 990.4
20260506153041 76 315 1.0 4.0 0.00 0.00 0.00 36 990.2
20260506143101 80 0 2.0 8.0 0.00 0.00 0.00 31 990.2
20260506140042 80 315 2.0 11.0 0.00 0.00 0.00 32 990.2
20260506133041 78 0 1.0 5.0 0.00 0.00 0.00 32 990.4
20260506130041 77 293 2.0 4.0 0.00 0.00 0.00 34 990.7
20260506123041 79 0 2.0 8.0 0.00 0.00 0.00 32 990.8
20260506120041 79 0 3.0 9.0 0.00 0.00 0.00 31 990.9
20260506113041 79 0 3.0 10.0 0.00 0.00 0.00 35 991.2
20260506103041 79 315 2.0 8.0 0.00 0.00 0.00 30 991.5
20260506100041 78 315 2.0 8.0 0.00 0.00 0.00 35 991.7
20260506093041 78 203 2.0 9.0 0.00 0.00 0.00 36 991.8
20260506090041 76 315 2.0 8.0 0.00 0.00 0.00 34 991.9
20260506083040 77 315 2.0 7.0 0.00 0.00 0.00 32 992.2
20260506073100 76 0 3.0 11.0 0.00 0.00 0.00 38 992.3
20260506043042 62 0 4.0 10.0 0.00 0.00 0.00 49 992.8
20260506040040 60 315 4.0 8.0 0.00 0.00 0.00 49 992.7
20260506033042 58 338 2.0 6.0 0.00 0.00 0.00 51 992.7
20260506030040 55 315 2.0 4.0 0.00 0.00 0.00 55 992.7